Location: Newark
(46.1292°N, 1.0086°W)
Time: 04:39:03
(UTC+00:00)

Vanguard 3 - Pass Details

Date: 19 November 2019
Orbit: 508 x 3263 km, 33.3° (Epoch: 08 December)

Event Time Altitude Azimuth Distance (km) Brightness Sun altitude
Rises 10:10:12 0° 172° (S) 6,468 13.1 20.7°
Reaches altitude 10° 10:19:10 10° 147° (SSE) 5,951 13.5 21.3°
Maximum altitude 10:24:52 12° 129° (SE) 5,948 12.8 21.7°
Drops below altitude 10° 10:30:43 10° 111° (ESE) 6,201 12.3 22.1°
Sets 10:40:29 0° 87° (E) 7,087 12.1 22.6°
